sat.trackr.live / text

‹ back to catalog

STARLINK-35782

NORAD 67182 · 2025-303V

PAYLOAD ACTIVE UNKNOWN

§ Identity

Operator
Country
US
Launch date
2025-12-17
Launch site
AFETR
Launch vehicle
Mass (kg)
RCS (m²)

Purposes: comms

External: N2YO · Heavens-Above · Gunter

§ Orbital elements

Epoch: 2026-05-24T23:00:42.581088Z

Period
94.27 min
Inclination
43.0011°
Eccentricity
0.0001088
Mean motion
15.27594214 rev/d
Perigee alt
482.3 km
Apogee alt
483.8 km
Semi-major
6,861.1 km
B*
6.4237e-4
RAAN
239.6258°
Arg perigee
275.8324°
Mean anomaly
84.2404°
Rev number
2,440

§ Raw data

STARLINK-357821 67182U 25303V   26144.95882617  .00017464  00000+0  64237-3 0  99962 67182  43.0011 239.6258 0001088 275.8324  84.2404 15.27594214 24400

JSON: /api/v1/satellites/67182 · /tle

For live sub-satellite position, see the globe view (requires WebGL).

§ Visibility from observer

Set your observer location to see the next 7 days of passes ≥ 10°. The values pass through the URL so the page stays shareable.

No JS? Fill the form by hand. The geolocation button needs JavaScript.